Temp
84 84 85 84 85 85 85 85 86 86 85 86 86 86 85 86 86 86 86 86 86 86 86 85 85 85 87 86 86 86 86 86 87 87 87 87 88 88 89 88 88 88
84 84 84 85 84 84 84 86 85 85 85 85 86 86 86 86 86 86 86 86 86 86 86 86 86 86 86 87 86 86 86 86 86 89 86 86 88 88 89 88 88 88
85 84 85 85 86 85 88 86 86 86 87 87 87 86 87 87 87 86 86 86 86 88 86 86 86 86 86 86 86 86 87 85 85 89 87 86 88 87 88 91 90 89
84 85 87 87 87 87 87 86 85 85 87 86 86 88 88 89 87 87 86 85 86 86 87 87 86 87 86 86 85 86 86 85 87 87 86 87 87 88 88 88 89 90
85 85 86 87 87 86 86 86 87 87 87 87 88 87 86 85 86 87 87 86 85 87 86 86 86 87 86 86 86 85 86 87 87 86 86 86 87 87 89 88 87 88
84 84 85 86 86 85 86 87 87 88 88 89 87 88 88 87 87 88 88 88 89 89 89 89 88 88 88 87 86 86 87 88 89 86 85 85 87 89 90 88 87 86
85 84 85 86 87 86 86 86 87 87 89 90 88 87 88 88 87 87 87 87 89 88 89 87 86 87 87 87 86 85 86 86 86 86 85 86 86 86 88 87 86 86
86 86 86 85 86 86 86 88 87 87 87 87 88 88 88 88 87 89 88 88 88 88 87 88 86 86 88 88 87 86 86 89 87 85 85 85 85 85 86 87 86 85
86 86 86 85 86 87 88 90 89 89 88 87 89 90 88 88 89 89 87 87 87 87 86 87 86 87 88 87 87 86 86 88 89 87 86 86 86 85 86 87 86 86
85 86 87 87 87 87 87 89 90 90 89 88 89 91 90 88 88 89 87 85 86 86 86 86 86 87 88 88 86 86 86 86 86 86 87 87 86 87 88 87 87 86
86 86 86 86 87 88 87 88 89 90 89 89 90 90 90 90 88 88 87 86 87 87 86 86 87 87 87 88 88 88 88 88 87 87 87 87 87 87 86 86 87 87
82 85 86 86 86 87 87 87 88 89 89 89 90 89 89 90 89 89 88 87 87 87 88 87 86 87 86 87 89 89 88 88 88 87 88 88 88 88 88 88 88 87
82 84 85 86 85 86 87 87 88 89 89 89 90 89 89 90 91 89 88 88 87 88 88 87 87 87 86 86 87 88 88 87 88 88 88 88 89 89 90 90 90 90
82 82 82 82 83 83 84 86 87 87 87 87 88 88 89 89 90 90 90 89 89 88 88 88 87 87 86 86 86 87 88 88 87 88 89 89 89 89 90 91 90 91
80 80 81 80 80 80 81 83 83 84 84 85 85 87 89 89 90 90 89 89 89 88 88 88 89 88 88 87 86 86 87 88 87 87 87 87 87 90 90 89 90 91
77 78 78 79 77 77 78 79 82 83 84 84 84 85 85 85 86 87 88 88 88 88 88 89 89 89 85 79 80 87 87 89 88 86 86 87 86 86 89 90 91 92
73 73 75 76 76 75 76 77 78 79 80 80 81 82 82 82 84 85 87 88 88 88 88 90 90 91 79 71 69 71 83 86 86 86 86 86 86 85 85 88 90 90
74 73 73 73 73 74 76 77 77 77 78 78 80 82 81 84 84 83 83 86 87 88 88 89 90 75 68 69 69 67 72 83 87 87 88 87 87 87 87 88 88 90
75 75 74 74 73 74 74 75 76 76 77 78 78 80 81 81 81 82 83 83 84 83 85 86 87 68 66 66 67 66 65 74 86 87 87 88 88 87 87 86 86 87
74 75 74 75 75 74 74 75 75 75 76 77 78 78 78 79 81 81 81 80 81 81 82 84 84 70 63 63 63 64 64 71 85 86 87 87 87 87 88 87 86 85
72 73 73 74 75 74 74 73 73 73 74 75 76 77 77 77 77 78 80 81 83 85 84 85 79 61 60 59 60 62 62 72 85 86 86 86 86 87 85 86 86 87
73 72 71 72 73 74 74 73 72 72 72 73 74 75 77 77 78 79 79 79 79 80 80 78 74 60 59 59 58 60 63 82 83 82 83 85 85 85 85 85 85 85
73 73 72 72 72 73 72 71 72 72 72 73 73 73 74 74 76 76 77 77 77 77 75 73 74 64 58 57 58 59 71 81 81 82 83 84 84 84 84 84 84 84
72 72 71 72 73 74 73 71 72 73 74 75 73 71 70 71 72 73 74 75 76 75 75 74 73 66 56 56 57 59 72 78 79 81 82 82 83 83 83 83 83 80
74 73 73 72 71 71 73 73 73 73 74 74 72 71 70 70 70 70 71 72 74 74 73 73 73 69 57 56 57 58 69 77 78 80 81 82 83 83 84 84 83 82
75 74 74 74 72 72 72 72 73 73 73 73 73 73 72 71 71 70 70 71 74 74 74 73 72 72 65 55 54 56 60 72 74 75 76 78 80 79 80 82 83 84
MSLP
1021.19 1021.31 1021.55 1021.75 1021.83 1021.83 1021.99 1022.19 1022.15 1022.31 1022.43 1022.39 1022.63 1022.67 1022.79 1022.67 1022.63 1022.75 1022.79 1022.83 1022.91 1023.03 1023.11 1023.19 1023.23 1023.35 1023.35 1023.39 1023.47 1023.63 1023.79 1023.87 1023.87 1023.87 1023.99 1024.03 1024.07 1024.11 1024.19 1024.23 1024.19 1024.15
1021.15 1021.23 1021.35 1021.47 1021.71 1021.79 1021.83 1021.83 1021.99 1022.11 1022.31 1022.31 1022.27 1022.35 1022.39 1022.51 1022.55 1022.63 1022.75 1022.83 1022.87 1022.95 1022.99 1023.11 1023.19 1023.27 1023.35 1023.43 1023.55 1023.75 1023.87 1023.91 1024.03 1023.63 1024.03 1024.11 1024.03 1023.99 1024.11 1024.07 1024.11 1023.99
1020.99 1021.15 1021.35 1021.59 1021.59 1021.67 1021.59 1021.63 1021.75 1021.91 1022.03 1022.03 1022.11 1022.23 1022.35 1022.31 1022.47 1022.55 1022.59 1022.71 1022.83 1022.83 1022.95 1023.03 1023.19 1023.27 1023.35 1023.47 1023.59 1023.75 1023.83 1023.99 1024.11 1023.71 1023.91 1024.07 1023.87 1024.03 1023.95 1023.79 1023.83 1023.95
1020.87 1020.91 1021.03 1021.11 1021.15 1021.35 1021.39 1021.63 1021.75 1021.87 1021.83 1022.11 1022.19 1022.03 1022.11 1022.11 1022.31 1022.51 1022.59 1022.75 1022.87 1022.91 1022.91 1022.99 1023.11 1023.15 1023.31 1023.43 1023.63 1023.75 1023.75 1023.87 1023.75 1023.75 1023.95 1023.83 1023.83 1023.79 1023.83 1023.79 1023.83 1023.79
1020.75 1020.83 1020.83 1020.87 1020.95 1021.07 1021.27 1021.55 1021.67 1021.71 1021.79 1021.79 1021.83 1021.95 1022.15 1022.27 1022.35 1022.39 1022.51 1022.63 1022.79 1022.87 1022.91 1023.07 1023.11 1023.19 1023.27 1023.43 1023.51 1023.75 1023.67 1023.75 1023.63 1023.75 1023.99 1024.03 1023.79 1023.83 1023.75 1023.79 1024.03 1024.07
1020.59 1020.63 1020.71 1020.83 1020.95 1021.15 1021.31 1021.47 1021.51 1021.51 1021.59 1021.71 1021.79 1021.71 1021.91 1022.07 1022.19 1022.23 1022.31 1022.47 1022.47 1022.63 1022.75 1022.79 1022.95 1023.03 1023.07 1023.27 1023.43 1023.55 1023.55 1023.59 1023.47 1023.71 1023.95 1024.07 1023.87 1023.59 1023.63 1023.79 1023.99 1024.15
1020.59 1020.67 1020.79 1020.75 1020.87 1020.95 1021.19 1021.23 1021.27 1021.35 1021.39 1021.31 1021.43 1021.71 1021.71 1021.95 1022.11 1022.15 1022.23 1022.31 1022.39 1022.51 1022.63 1022.79 1022.99 1023.03 1022.99 1023.15 1023.35 1023.55 1023.51 1023.55 1023.51 1023.63 1023.87 1023.79 1023.75 1023.83 1023.63 1023.75 1023.95 1024.11
1020.43 1020.47 1020.59 1020.71 1020.87 1020.95 1021.11 1021.07 1021.15 1021.23 1021.23 1021.35 1021.59 1021.51 1021.59 1021.79 1021.91 1021.91 1022.03 1022.19 1022.31 1022.43 1022.51 1022.59 1022.75 1022.91 1022.87 1022.91 1023.19 1023.35 1023.39 1023.19 1023.39 1023.59 1023.75 1023.83 1023.79 1023.95 1023.79 1023.67 1023.79 1024.07
1020.27 1020.43 1020.55 1020.71 1020.87 1020.87 1020.91 1020.83 1020.87 1020.99 1021.03 1021.35 1021.39 1021.35 1021.39 1021.55 1021.71 1021.79 1022.03 1022.11 1022.27 1022.35 1022.47 1022.51 1022.59 1022.63 1022.59 1022.79 1022.95 1023.15 1023.27 1023.19 1023.07 1023.31 1023.55 1023.71 1023.79 1023.79 1023.67 1023.51 1023.75 1023.83
1020.27 1020.27 1020.39 1020.51 1020.75 1020.71 1020.83 1020.71 1020.67 1020.79 1020.83 1021.07 1021.15 1021.11 1021.35 1021.43 1021.55 1021.67 1021.87 1022.15 1022.27 1022.35 1022.39 1022.43 1022.47 1022.43 1022.47 1022.51 1022.75 1022.87 1023.03 1023.11 1023.11 1023.15 1023.23 1023.31 1023.43 1023.47 1023.39 1023.47 1023.59 1023.71
1020.07 1020.15 1020.35 1020.43 1020.51 1020.47 1020.67 1020.67 1020.71 1020.71 1020.71 1020.95 1020.99 1021.15 1021.15 1021.27 1021.51 1021.55 1021.87 1022.07 1022.19 1022.23 1022.27 1022.31 1022.31 1022.27 1022.39 1022.39 1022.39 1022.43 1022.59 1022.71 1022.79 1022.91 1022.99 1023.07 1023.07 1023.11 1023.15 1023.27 1023.35 1023.43
1020.15 1020.11 1020.15 1020.23 1020.31 1020.39 1020.47 1020.55 1020.59 1020.67 1020.71 1020.75 1020.83 1021.11 1021.19 1021.19 1021.39 1021.47 1021.63 1021.87 1021.95 1021.95 1021.95 1022.03 1022.07 1022.11 1022.23 1022.27 1022.19 1022.19 1022.35 1022.43 1022.51 1022.63 1022.71 1022.75 1022.75 1022.75 1022.79 1022.83 1022.95 1022.99
1020.11 1020.07 1019.95 1020.03 1020.15 1020.27 1020.23 1020.31 1020.43 1020.47 1020.55 1020.67 1020.63 1020.83 1021.03 1021.15 1021.11 1021.31 1021.35 1021.51 1021.63 1021.67 1021.75 1021.79 1021.87 1021.87 1022.03 1022.07 1022.11 1022.11 1022.19 1022.35 1022.39 1022.43 1022.51 1022.51 1022.43 1022.43 1022.39 1022.39 1022.47 1022.51
1019.95 1019.95 1020.03 1020.07 1020.11 1020.23 1020.35 1020.31 1020.31 1020.39 1020.51 1020.55 1020.59 1020.79 1020.87 1020.91 1020.95 1021.03 1021.07 1021.15 1021.27 1021.39 1021.39 1021.43 1021.59 1021.71 1021.75 1021.83 1021.91 1021.95 1022.03 1022.15 1022.19 1022.27 1022.27 1022.23 1022.19 1022.15 1022.11 1022.11 1022.11 1022.15
1019.91 1019.91 1019.87 1019.99 1020.15 1020.31 1020.39 1020.47 1020.51 1020.55 1020.55 1020.59 1020.63 1020.71 1020.59 1020.59 1020.59 1020.67 1020.87 1020.99 1020.99 1021.11 1021.19 1021.19 1021.31 1021.39 1021.35 1021.51 1021.71 1021.83 1021.83 1021.95 1021.99 1022.07 1022.11 1022.19 1022.15 1021.99 1021.87 1021.87 1021.83 1021.75
1020.11 1020.15 1020.19 1020.15 1020.27 1020.43 1020.47 1020.47 1020.43 1020.51 1020.55 1020.67 1020.71 1020.63 1020.63 1020.63 1020.67 1020.71 1020.79 1020.91 1020.99 1020.99 1020.99 1020.99 1021.03 1020.95 1020.99 1021.19 1021.31 1021.43 1021.55 1021.59 1021.63 1021.79 1021.83 1021.91 1022.07 1022.07 1021.87 1021.63 1021.55 1021.43
1020.23 1020.27 1020.19 1020.35 1020.39 1020.39 1020.35 1020.47 1020.59 1020.59 1020.75 1020.83 1020.79 1020.75 1020.75 1020.71 1020.67 1020.71 1020.67 1020.63 1020.79 1020.87 1020.95 1020.83 1020.71 1020.59 1020.91 1021.19 1021.35 1021.47 1021.51 1021.51 1021.63 1021.63 1021.59 1021.71 1021.79 1021.91 1021.95 1021.67 1021.39 1021.23
1019.99 1020.15 1020.27 1020.35 1020.43 1020.47 1020.31 1020.31 1020.43 1020.59 1020.75 1020.83 1020.79 1020.79 1020.79 1020.63 1020.71 1020.75 1020.71 1020.63 1020.63 1020.75 1020.83 1020.79 1020.63 1020.91 1021.03 1021.15 1021.27 1021.39 1021.51 1021.39 1021.19 1021.23 1021.23 1021.31 1021.31 1021.39 1021.39 1021.35 1021.35 1021.23
1019.75 1019.99 1020.11 1020.23 1020.31 1020.27 1020.23 1020.23 1020.39 1020.55 1020.63 1020.71 1020.83 1020.67 1020.63 1020.87 1020.83 1020.79 1020.79 1020.75 1020.87 1021.07 1021.03 1020.91 1020.91 1021.51 1021.39 1021.19 1021.07 1021.07 1021.23 1021.31 1020.99 1020.91 1020.95 1020.95 1020.95 1021.03 1021.11 1021.19 1021.23 1021.27
1019.87 1019.91 1020.07 1020.03 1019.95 1020.07 1020.15 1020.23 1020.31 1020.51 1020.51 1020.43 1020.47 1020.55 1020.75 1020.87 1020.75 1020.83 1020.83 1020.95 1021.03 1021.15 1021.15 1020.99 1020.95 1021.51 1021.59 1021.43 1021.19 1020.99 1020.87 1020.95 1020.67 1020.67 1020.67 1020.67 1020.75 1020.75 1020.75 1020.83 1020.95 1021.11
1020.31 1020.23 1020.23 1020.15 1020.15 1020.19 1020.35 1020.47 1020.59 1020.63 1020.67 1020.67 1020.63 1020.75 1020.87 1020.91 1020.91 1020.91 1020.79 1020.79 1020.71 1020.67 1020.83 1020.79 1021.23 1021.63 1021.43 1021.27 1020.99 1020.83 1020.75 1020.63 1020.31 1020.31 1020.35 1020.47 1020.47 1020.51 1020.63 1020.63 1020.63 1020.67
1020.59 1020.63 1020.63 1020.55 1020.47 1020.43 1020.51 1020.67 1020.79 1020.87 1020.95 1020.83 1020.91 1020.91 1020.79 1020.75 1020.79 1020.67 1020.75 1020.79 1020.79 1020.87 1020.91 1021.27 1021.59 1021.75 1021.47 1021.19 1020.99 1020.71 1020.51 1020.19 1020.19 1020.47 1020.43 1020.31 1020.31 1020.35 1020.35 1020.35 1020.35 1020.43
1020.71 1020.75 1020.83 1020.75 1020.75 1020.79 1020.87 1020.99 1021.03 1021.03 1020.99 1020.91 1021.11 1021.07 1021.07 1021.11 1021.03 1020.99 1020.87 1020.83 1020.91 1020.95 1021.27 1021.67 1021.67 1021.83 1021.71 1021.39 1021.07 1020.67 1020.31 1020.07 1020.19 1020.23 1020.31 1020.31 1020.23 1020.19 1020.19 1020.15 1020.19 1020.27
1020.71 1020.67 1020.79 1020.83 1020.83 1020.99 1021.07 1021.19 1021.15 1021.03 1020.87 1020.75 1021.15 1021.39 1021.47 1021.39 1021.31 1021.39 1021.47 1021.43 1021.27 1021.31 1021.39 1021.63 1021.71 1021.83 1021.83 1021.59 1021.31 1020.95 1020.47 1020.31 1020.27 1020.27 1020.39 1020.39 1020.31 1020.23 1020.15 1020.15 1020.19 1020.35
1021.07 1021.03 1021.15 1021.35 1021.43 1021.35 1021.19 1021.19 1021.23 1021.27 1021.15 1021.15 1021.31 1021.35 1021.39 1021.27 1021.27 1021.63 1021.79 1021.71 1021.67 1021.63 1021.59 1021.63 1021.75 1021.83 1021.95 1021.83 1021.59 1021.23 1020.71 1020.35 1020.31 1020.31 1020.43 1020.31 1020.19 1020.15 1020.03 1020.07 1020.11 1020.11
1021.23 1021.31 1021.27 1021.35 1021.39 1021.43 1021.43 1021.43 1021.35 1021.35 1021.35 1021.31 1021.35 1021.23 1021.39 1021.51 1021.67 1021.91 1022.03 1021.99 1021.95 1021.95 1021.87 1021.79 1021.79 1021.79 1021.99 1021.99 1021.87 1021.59 1021.23 1020.83 1020.63 1020.79 1020.99 1020.87 1020.55 1020.55 1020.55 1020.19 1020.03 1019.99
Wind_Speed
6 5 5 5 5 5 5 5 5 5 4 4 4 4 4 4 4 4 4 3 4 4 4 3 3 3 3 3 3 2 2 3 3 2 3 4 4 4 3 3 3 3
7 6 5 4 4 4 4 5 5 5 4 4 4 3 3 3 4 4 4 3 3 4 3 3 3 3 3 3 3 3 3 3 4 3 3 4 4 3 3 3 3 3
8 7 7 7 6 7 7 5 4 5 4 4 4 3 3 4 4 4 3 3 3 3 3 3 3 3 3 4 3 3 3 3 4 3 3 4 3 3 4 3 3 3
8 7 7 7 6 6 6 5 5 4 4 4 5 4 4 3 4 4 3 3 3 3 3 3 3 3 3 3 3 3 3 3 3 3 3 3 3 3 4 3 4 4
8 7 6 6 5 5 5 5 6 5 6 5 4 4 4 4 4 4 4 4 4 4 3 4 3 4 3 3 3 3 3 4 3 3 3 4 3 3 4 3 4 5
7 6 6 6 5 5 5 6 6 6 6 5 5 4 5 5 5 5 5 5 4 4 4 4 4 4 4 3 3 3 3 4 3 3 4 4 5 4 4 4 5 5
8 7 7 6 6 6 6 6 5 5 5 4 3 4 4 5 5 5 5 5 4 4 4 4 4 4 3 3 3 4 4 4 4 4 5 5 4 5 5 5 5 6
8 7 7 6 7 6 7 6 5 5 5 4 5 4 5 5 5 5 5 5 5 5 5 5 4 4 5 4 4 4 5 4 5 5 5 5 5 6 5 5 4 5
7 7 7 8 8 7 8 8 6 5 4 5 5 4 5 5 5 5 5 5 5 4 5 5 5 5 4 5 5 5 5 6 5 5 5 6 6 6 6 5 5 6
7 7 8 8 9 7 8 8 7 6 5 5 5 5 4 5 5 5 5 5 5 5 5 5 5 5 5 5 6 6 6 6 6 6 6 6 6 6 6 5 5 6
8 8 8 8 8 7 7 7 7 6 5 6 5 5 5 4 4 5 5 5 6 6 6 6 6 6 6 6 6 6 6 6 6 6 6 6 6 6 6 6 7 7
7 7 8 8 8 7 7 7 6 7 6 6 6 6 5 5 5 5 5 6 6 6 6 6 5 6 6 6 7 6 6 6 6 6 7 7 7 7 7 7 7 7
6 7 6 6 6 6 5 5 6 6 7 7 6 7 7 7 7 7 6 6 6 6 7 6 6 6 6 6 6 6 6 6 7 7 7 7 7 8 8 7 7 7
7 7 6 4 3 3 4 4 3 3 4 4 5 6 7 8 8 7 7 7 7 7 7 6 6 6 6 6 6 7 7 7 7 7 8 7 7 7 7 8 8 8
6 6 5 5 4 4 4 4 3 3 3 3 4 5 5 6 6 7 7 7 7 7 7 6 6 6 6 6 6 7 7 8 8 8 8 8 7 8 7 7 8 8
5 4 4 5 4 4 3 4 4 3 2 3 3 3 4 4 5 5 6 7 7 7 7 6 6 5 6 9 7 6 6 6 6 6 7 7 7 7 8 8 9 8
4 4 5 5 4 4 4 4 4 3 2 2 3 3 3 2 4 5 6 6 6 7 6 6 6 4 4 8 9 9 7 7 6 7 7 7 7 7 8 9 8 8
7 6 5 4 4 6 6 6 4 4 4 4 4 4 3 4 4 4 3 4 4 5 6 4 3 8 4 2 6 7 7 7 7 7 6 7 7 8 7 7 8 8
7 6 6 6 6 5 5 5 5 5 5 5 5 4 4 5 5 4 4 2 1 1 1 0 1 9 5 3 3 6 8 8 6 7 7 7 7 7 7 7 7 7
6 6 5 5 6 6 6 5 5 4 3 3 3 4 5 6 6 5 3 2 1 1 1 1 1 6 4 3 1 3 6 8 5 5 6 7 7 7 7 7 6 6
7 7 7 7 6 7 7 6 4 3 3 3 2 3 3 3 4 5 4 5 5 6 3 2 4 8 5 3 2 3 5 6 3 4 4 4 5 6 6 7 7 7
5 5 6 6 6 6 6 6 5 4 4 3 3 1 1 1 2 1 2 2 3 3 3 5 5 8 6 5 4 1 6 4 3 3 3 3 4 4 4 5 5 6
5 6 6 6 5 5 6 5 4 4 4 3 4 4 5 4 4 5 4 3 3 5 7 6 6 8 9 9 8 6 2 2 2 2 3 3 3 3 3 4 4 4
7 7 7 7 6 6 6 5 4 4 6 7 8 8 8 8 7 7 7 7 8 8 6 5 5 7 9 10 11 10 5 2 1 0 1 1 1 1 1 2 2 4
6 7 7 7 7 6 6 8 9 9 8 8 7 6 7 6 6 6 6 6 6 6 8 7 5 6 9 10 12 13 9 5 4 2 2 3 4 3 2 2 2 2
6 7 7 7 8 7 7 7 6 7 8 8 7 7 7 6 5 5 7 6 5 5 5 6 7 8 10 10 12 13 13 6 4 4 4 4 4 4 4 4 3 3
Wind_Direction
192 189 197 199 210 212 201 200 203 199 196 196 204 202 208 207 203 207 214 210 210 209 198 202 199 204 208 216 222 232 247 255 263 235 238 251 261 262 271 273 272 268
193 190 190 203 203 202 206 210 200 206 196 197 209 202 204 207 204 216 216 219 211 215 211 213 216 222 228 231 230 240 243 240 246 231 235 240 253 263 268 264 270 281
193 190 192 201 208 206 210 202 205 211 211 212 197 204 204 202 205 203 218 224 229 225 207 217 224 230 239 243 250 251 248 254 257 252 242 252 254 256 271 274 261 254
195 195 195 203 206 200 196 193 199 209 213 200 212 209 210 203 196 197 201 205 228 231 229 222 229 230 228 235 240 253 254 262 270 289 272 261 257 266 271 272 277 276
195 192 196 202 199 195 191 199 207 203 213 214 207 197 196 198 205 202 200 199 208 223 213 221 219 229 221 226 224 248 252 254 245 257 274 277 267 260 273 278 279 279
192 188 189 195 190 189 198 204 207 209 215 212 213 201 205 199 210 211 203 210 210 217 226 228 228 226 228 215 222 239 253 261 251 246 262 271 281 287 286 285 284 280
196 190 192 195 199 193 203 201 203 211 213 226 197 207 198 202 207 211 206 206 218 216 226 220 226 236 230 227 227 229 232 244 257 253 262 270 273 281 282 277 277 281
205 192 190 191 200 198 213 207 207 203 205 206 219 207 204 207 208 213 213 212 218 214 216 220 220 223 237 232 234 231 237 237 238 240 256 267 274 276 276 278 278 280
202 196 192 196 206 210 221 227 219 215 200 212 222 215 200 213 209 212 206 213 225 223 216 221 217 228 229 232 239 241 246 253 253 247 254 264 267 268 272 274 273 275
199 204 204 203 209 213 221 230 234 224 210 220 226 230 211 204 216 219 205 208 224 226 226 231 226 229 231 226 227 234 238 237 241 243 251 257 261 268 272 268 271 275
208 206 206 208 214 215 215 221 232 235 222 224 228 233 228 214 204 213 215 214 226 228 229 230 234 234 231 237 234 231 233 242 243 241 247 250 258 263 264 268 271 272
212 216 216 215 216 217 215 216 222 228 230 221 226 232 228 234 224 220 216 217 223 233 238 237 237 236 234 241 244 237 230 237 240 242 246 248 252 256 258 259 266 270
216 221 222 218 211 217 220 216 219 226 229 231 223 227 232 238 233 228 219 226 222 227 235 233 236 240 237 238 243 245 241 240 248 246 245 245 249 253 259 260 260 263
221 217 211 193 182 169 199 214 221 221 226 234 235 232 237 241 245 239 227 224 226 226 227 228 229 235 234 236 240 244 245 244 244 251 254 252 254 252 254 258 258 259
199 189 179 157 156 155 161 167 174 180 174 197 212 234 238 239 244 250 249 240 230 224 224 223 227 229 229 226 228 231 238 246 245 246 250 255 257 261 257 252 254 256
188 178 191 190 161 157 166 167 168 176 186 184 178 198 217 231 238 241 249 253 249 234 227 225 227 231 215 212 226 245 245 251 247 245 251 254 256 262 262 258 258 259
166 184 201 208 195 190 197 197 195 188 190 207 215 198 182 172 220 228 235 240 244 248 239 230 230 232 180 204 216 229 250 259 259 258 251 248 251 252 261 267 268 264
195 181 193 199 195 204 212 209 198 199 208 218 227 223 211 219 209 192 195 216 223 235 243 244 239 64 78 182 216 219 222 245 253 258 256 254 254 257 261 269 275 277
185 182 193 197 191 185 178 181 192 201 217 221 223 223 231 231 229 217 204 207 200 198 253 339 87 47 31 73 155 200 203 220 242 245 253 253 256 257 262 265 269 276
110 118 118 133 141 139 138 144 146 156 166 176 195 205 218 224 230 229 220 208 220 245 271 315 81 36 6 17 32 184 181 195 222 236 245 255 258 261 267 270 272 274
87 94 89 83 88 99 103 105 108 107 114 116 127 157 180 197 211 227 232 238 242 245 246 246 58 8 19 15 59 158 171 205 196 211 220 243 253 258 261 264 267 268
64 64 62 81 91 99 104 106 107 106 111 114 116 116 121 149 139 158 154 166 177 180 174 92 51 16 20 28 13 14 194 201 173 197 215 219 221 229 243 251 258 261
61 76 78 72 64 76 88 73 78 97 107 116 109 82 68 55 45 41 45 64 139 133 101 83 57 27 21 24 19 360 254 140 158 195 206 223 214 211 225 235 239 246
55 59 57 61 77 89 89 84 85 80 89 84 81 79 74 67 63 59 48 51 71 86 91 88 59 38 28 28 27 14 2 64 46 289 234 236 223 204 252 244 252 266
61 70 71 82 84 77 81 88 81 82 82 80 79 82 80 77 73 72 70 60 55 64 65 65 60 52 38 29 30 24 16 36 28 350 315 307 294 278 267 264 258 243
61 65 69 70 74 68 64 68 74 78 79 83 80 81 77 71 71 72 75 66 55 64 74 73 66 56 45 36 33 30 20 20 34 48 30 355 337 336 311 308 297 286